[[{"header":{"parameterUnit":"m.s-1","parameterCategory":1,"la1":30.2991,"la2":30.254,"lo1":-89.0895,"lo2":-89.0444,"dy":0.0017,"dx":0.0017,"nx":28,"ny":28,"refTime":"2025-01-10T09:00:00:Z","depth":0,"parameterNumber":2,"parameterNumberName":"U-component_of_WINDS"},"data":[0,0,0,0,0,0,0,0,0,0,0,0,0,0,0,0,0,0,0,0,0,0,0,0,0,0,0,0,0,0,0,0,0,0,0,0,0,0,0,0,0,0,0,0,0,0,0,0,0,0,0,0,0,0,0,0,0,0,5.0369,5.037,0,5.0469,5.047,5.0471,5.0406,5.0403,5.04,5.0397,5.05,5.0505,5.0511,0,0,0,0,0,0,0,0,0,0,0,0,0,5.0123,5.0128,5.0369,5.037,5.0371,5.0469,5.047,5.0472,5.0406,5.0403,5.0399,5.0396,5.0498,5.0505,5.0511,0,0,0,0,0,0,0,0,0,0,0,0,0,5.0227,5.0129,5.0369,5.0351,5.035,5.0469,5.047,5.0472,5.0407,5.0403,5.0398,5.0394,5.0496,5.0504,5.0512,5.0654,0,0,5.0538,5.0541,0,0,0,0,0,0,0,0,5.0221,5.0236,5.0352,5.0352,5.0352,5.042,5.0421,5.0533,5.0408,5.0386,5.0397,5.0392,5.0477,5.0487,5.0516,5.0659,5.0664,5.0539,5.0544,5.0547,5.055,0,0,0,0,0,0,0,5.0214,5.0231,5.0408,5.0354,5.0354,5.0338,5.0348,5.0442,5.0456,5.0387,5.0383,5.0395,5.0476,5.0508,5.0517,5.0665,5.0538,5.0546,5.0551,5.0554,5.0932,5.0937,0,0,0,0,0,0,5.0208,5.0226,5.0405,5.0411,5.0274,5.0346,5.0357,5.0403,5.0454,5.0458,5.0399,5.0392,5.0496,5.0508,5.0521,5.0692,5.0547,5.0555,5.056,5.0927,5.0934,5.0939,0,0,0,0,0,0,5.0203,5.0225,5.0401,5.0318,5.0339,5.0355,5.0407,5.0407,5.0438,5.0463,5.0466,5.0429,5.0493,5.0509,5.0622,5.0694,5.0559,5.0566,5.0922,5.0929,5.0936,5.1034,0,0,0,0,0,0,5.0196,5.0223,5.0277,5.0319,5.0344,5.0501,5.0411,5.0412,5.0453,5.0445,5.0492,5.0495,5.049,5.061,5.063,5.0703,5.0573,5.0915,5.0925,5.0934,5.1024,5.1044,5.106,0,0,0,0,0,5.0188,5.03,5.028,5.0302,5.0411,5.0505,5.0519,5.0511,5.0459,5.0513,5.053,5.0494,5.0683,5.0622,5.0645,5.0721,5.091,5.0922,5.0933,5.1016,5.104,5.106,0,0,0,0,0,0,5.0266,5.0305,5.0283,5.0413,5.0456,5.0493,5.0562,5.0536,5.0595,5.0584,5.0572,5.0583,5.0702,5.0723,5.0654,5.0862,5.0789,5.0805,5.0844,5.0867,5.0885,5.0877,5.058,0,0,0,0,0,5.0298,5.0371,5.0401,5.0512,5.0535,5.0545,5.0586,5.0576,5.062,5.0638,5.0663,5.0707,5.0777,5.0823,5.0888,5.1027,5.1037,5.1091,5.1109,5.1124,5.1138,5.1214,5.1239,5.0976,5.0976,5.0976,0,0,5.0365,5.0396,5.0442,5.0529,5.0561,5.0637,5.0561,5.0644,5.0701,5.0651,5.0759,5.0779,5.0828,5.0955,5.1012,5.0976,5.1213,5.1138,5.115,5.1156,5.1228,5.1253,5.1275,5.0984,5.0983,5.0981,0,0,5.0527,5.0557,5.0653,5.0688,5.0738,5.0744,5.0767,5.081,5.0821,5.0929,5.0894,5.0962,5.1081,5.1118,5.1153,5.1331,5.13,5.1353,5.1447,5.1522,5.1542,5.1561,5.1625,5.1648,5.1367,5.1367,5.1367,0,5.0604,5.0717,5.0706,5.0793,5.0833,5.0791,5.089,5.0924,5.0993,5.1021,5.098,5.1131,5.1161,5.1297,5.134,5.137,5.1397,5.1347,5.154,5.1559,5.1575,5.1637,5.1661,5.1373,5.1373,5.1372,5.1371,0,5.081,5.0889,5.0961,5.1029,5.1077,5.1169,5.1173,5.1223,5.121,5.1221,5.1333,5.1368,5.144,5.1472,5.1459,5.1607,5.1583,5.1541,5.1467,5.1607,5.1664,5.1687,5.1382,5.138,5.1378,5.1376,0,0,5.1022,5.1084,5.1111,5.1142,5.1195,5.1256,5.1347,5.1418,5.1462,5.1512,5.1588,5.1692,5.1654,5.1694,5.1685,5.1751,5.1891,5.1701,5.1702,5.1736,5.2056,5.2087,5.2114,5.1871,5.1875,5.1879,5.2052,0,5.1186,5.1345,5.1339,5.1487,5.156,5.1523,5.1603,5.1645,5.1658,5.1723,5.1737,5.1811,5.1756,5.1779,5.1842,5.186,5.1955,5.1848,5.1943,5.1946,5.1932,5.2144,5.2177,5.2339,5.2075,5.2078,5.2081,0,5.1399,5.1457,5.1612,5.1656,5.1687,5.1758,5.1824,5.1886,5.1933,5.1939,5.1984,5.1965,5.2059,5.1983,5.2112,5.2039,5.2078,5.2093,5.2099,5.2107,5.2022,5.2159,5.239,5.2414,5.2116,5.2113,5.2111,0,5.154,5.1656,5.1764,5.1792,5.1845,5.1897,5.1922,5.1964,5.2008,5.2066,5.2094,5.2162,5.2199,5.2253,5.2254,5.2198,5.2385,5.2308,5.2392,5.2392,5.2433,5.243,5.2673,5.2458,5.2457,5.2457,5.2456,0,5.1724,5.1821,5.1828,5.1894,5.2002,5.1995,5.2102,5.2122,5.2161,5.2232,5.2204,5.2271,5.2268,5.2337,5.2338,5.2445,5.2462,5.2469,5.2469,5.2472,5.2471,5.2497,5.2486,5.2463,5.2462,5.2461,5.2459,0,5.1899,5.1907,5.2023,5.2064,5.2077,5.2155,5.2191,5.2255,5.2266,5.2356,5.2377,5.2395,5.2474,5.248,5.2572,5.2573,5.2703,5.269,5.2687,5.2685,5.2769,5.2761,5.3037,5.3074,5.2834,5.2836,5.2838,0,5.2016,5.209,5.214,5.2185,5.2213,5.2286,5.2331,5.2328,5.2375,5.2436,5.2493,5.257,5.263,5.2759,5.2781,5.2851,5.284,5.2932,5.285,5.2852,5.2842,5.2838,5.2845,5.2948,5.295,5.2952,5.2954,0,5.2224,5.2225,5.229,5.2358,5.2412,5.2465,5.2515,5.2553,5.2556,5.2612,5.2692,5.274,5.2834,5.2911,5.298,5.3006,5.2982,5.298,5.3003,5.3007,5.3003,5.3007,5.2731,5.2973,5.2971,5.297,5.2969,5.2968,5.2374,5.2438,5.2484,5.2558,5.2595,5.2642,5.2705,5.2724,5.2792,5.2868,5.2862,5.2952,5.2999,5.3089,5.3121,5.3192,5.3161,5.3194,5.3203,5.3211,5.322,5.2992,5.3205,5.3204,5.3204,5.3203,5.3203,0,5.2581,5.2609,5.2677,5.2748,5.2807,5.2778,5.2832,5.2883,5.2962,5.3008,5.3069,5.3163,5.3238,5.3266,5.3339,5.3391,5.3381,5.341,5.3406,5.3413,5.3243,5.3216,5.3416,5.3416,5.3416,5.3416,5.3416,5.3416,5.2695,5.2803,5.281,5.2936,5.2963,5.3051,5.3084,5.3128,5.3165,5.3271,5.3333,5.3351,5.339,5.3466,5.3534,5.3541,5.3569,5.3603,5.3605,5.3446,5.3425,5.3404,5.3379,5.3609,5.361,5.3769,5.377,5.3771]},{"header":{"parameterUnit":"m.s-1","parameterCategory":1,"la1":30.2991,"la2":30.254,"lo1":-89.0895,"lo2":-89.0444,"dy":0.0017,"dx":0.0017,"nx":28,"ny":28,"refTime":"2025-01-10T09:00:00:Z","depth":0,"parameterNumber":3,"parameterNumberName":"V-component_of_WINDS"},"data":[0,0,0,0,0,0,0,0,0,0,0,0,0,0,0,0,0,0,0,0,0,0,0,0,0,0,0,0,0,0,0,0,0,0,0,0,0,0,0,0,0,0,0,0,0,0,0,0,0,0,0,0,0,0,0,0,0,0,-4.5967,-4.5969,0,-4.6103,-4.6104,-4.6106,-4.6093,-4.6091,-4.6089,-4.6087,-4.6225,-4.6231,-4.6236,0,0,0,0,0,0,0,0,0,0,0,0,0,-4.5696,-4.5701,-4.5967,-4.5969,-4.597,-4.6103,-4.6105,-4.6106,-4.6094,-4.6091,-4.6089,-4.6086,-4.6223,-4.623,-4.6237,0,0,0,0,0,0,0,0,0,0,0,0,0,-4.5821,-4.5703,-4.5967,-4.598,-4.5983,-4.6102,-4.6105,-4.6107,-4.6094,-4.6091,-4.6088,-4.6085,-4.6221,-4.6229,-4.6238,-4.6352,0,0,-4.6263,-4.6267,0,0,0,0,0,0,0,0,-4.5814,-4.5831,-4.5976,-4.5979,-4.5982,-4.6078,-4.606,-4.6189,-4.6095,-4.6052,-4.6087,-4.6084,-4.6179,-4.619,-4.6223,-4.6359,-4.6365,-4.6264,-4.6269,-4.6273,-4.6275,0,0,0,0,0,0,0,-4.5805,-4.5825,-4.6021,-4.5979,-4.5982,-4.5979,-4.5993,-4.6084,-4.6131,-4.6055,-4.6055,-4.6071,-4.618,-4.6215,-4.6226,-4.6367,-4.6264,-4.6271,-4.6277,-4.628,-4.6604,-4.6607,0,0,0,0,0,0,-4.5794,-4.5818,-4.6016,-4.6025,-4.5889,-4.5987,-4.6003,-4.6051,-4.613,-4.6139,-4.6074,-4.607,-4.6202,-4.6216,-4.6231,-4.637,-4.6273,-4.6281,-4.6286,-4.66,-4.6605,-4.6609,0,0,0,0,0,0,-4.5788,-4.5811,-4.6011,-4.5921,-4.5946,-4.5995,-4.6049,-4.6055,-4.609,-4.6144,-4.6152,-4.6101,-4.62,-4.6219,-4.6322,-4.6375,-4.6284,-4.6292,-4.6596,-4.6602,-4.6607,-4.6651,0,0,0,0,0,0,-4.578,-4.5809,-4.5854,-4.5922,-4.5951,-4.6101,-4.6052,-4.606,-4.6104,-4.6101,-4.6172,-4.618,-4.6199,-4.631,-4.6331,-4.6385,-4.6299,-4.6592,-4.6599,-4.6605,-4.6645,-4.6657,-4.6667,0,0,0,0,0,-4.577,-4.586,-4.5856,-4.588,-4.6008,-4.6104,-4.612,-4.614,-4.6109,-4.6154,-4.6188,-4.6178,-4.6366,-4.6321,-4.6344,-4.6401,-4.6589,-4.6597,-4.6605,-4.664,-4.6654,-4.6667,0,0,0,0,0,0,-4.5796,-4.5869,-4.5865,-4.598,-4.6036,-4.6101,-4.6158,-4.6155,-4.6221,-4.6215,-4.6236,-4.6252,-4.6357,-4.6389,-4.6338,-4.6517,-4.6473,-4.6486,-4.6492,-4.6506,-4.6517,-4.6507,-4.6306,0,0,0,0,0,-4.5815,-4.5887,-4.5947,-4.6043,-4.6071,-4.611,-4.6153,-4.6163,-4.6222,-4.6245,-4.6287,-4.6344,-4.6416,-4.6463,-4.6532,-4.6649,-4.6665,-4.6701,-4.6712,-4.6721,-4.6732,-4.6796,-4.6813,-4.6635,-4.6635,-4.6635,0,0,-4.5855,-4.5904,-4.5948,-4.6049,-4.6094,-4.6168,-4.613,-4.621,-4.6265,-4.6257,-4.6358,-4.6391,-4.6456,-4.6567,-4.6618,-4.6597,-4.6784,-4.6731,-4.6738,-4.6744,-4.6806,-4.6823,-4.6838,-4.664,-4.6639,-4.6639,0,0,-4.5965,-4.601,-4.6094,-4.614,-4.6208,-4.6233,-4.6254,-4.632,-4.6342,-4.6443,-4.6439,-4.6505,-4.6628,-4.6675,-4.6714,-4.6843,-4.6836,-4.6865,-4.6924,-4.6987,-4.7001,-4.7013,-4.7059,-4.7076,-4.6876,-4.6876,-4.6876,0,-4.6006,-4.6118,-4.6138,-4.6219,-4.6264,-4.6261,-4.6346,-4.6389,-4.6476,-4.6507,-4.6483,-4.6638,-4.6681,-4.6803,-4.6835,-4.6867,-4.6891,-4.6857,-4.6997,-4.701,-4.7022,-4.7066,-4.7083,-4.6879,-4.6879,-4.6878,-4.6878,0,-4.6165,-4.6243,-4.6303,-4.6387,-4.6439,-4.6522,-4.6554,-4.6604,-4.661,-4.6638,-4.6741,-4.6794,-4.6873,-4.6903,-4.691,-4.7026,-4.7012,-4.6992,-4.6948,-4.7042,-4.7083,-4.7101,-4.6884,-4.6882,-4.6881,-4.6881,0,0,-4.6295,-4.639,-4.6412,-4.645,-4.6525,-4.6586,-4.6668,-4.6747,-4.6789,-4.6849,-4.6919,-4.7024,-4.7007,-4.7052,-4.7064,-4.7119,-4.7218,-4.7093,-4.7095,-4.7114,-4.735,-4.7364,-4.7383,-4.7214,-4.7217,-4.722,-4.7344,0,-4.6413,-4.656,-4.6581,-4.6711,-4.6783,-4.6781,-4.6853,-4.6907,-4.6935,-4.7,-4.7032,-4.7106,-4.7077,-4.7105,-4.7159,-4.7194,-4.7266,-4.7186,-4.7279,-4.7282,-4.7263,-4.7405,-4.742,-4.7535,-4.7361,-4.7364,-4.7366,0,-4.6571,-4.6636,-4.6773,-4.6838,-4.6869,-4.6934,-4.7007,-4.707,-4.7131,-4.7148,-4.7198,-4.7204,-4.7289,-4.7242,-4.7361,-4.7306,-4.7346,-4.7369,-4.7374,-4.7383,-4.7329,-4.7418,-4.7573,-4.759,-4.7392,-4.739,-4.7388,0,-4.6652,-4.6774,-4.6871,-4.6904,-4.6983,-4.7029,-4.7063,-4.7121,-4.7167,-4.7232,-4.7262,-4.7335,-4.7376,-4.7432,-4.7457,-4.7421,-4.7574,-4.7529,-4.7591,-4.759,-4.7623,-4.762,-4.7786,-4.7648,-4.7648,-4.7648,-4.7647,0,-4.6782,-4.6865,-4.6909,-4.6969,-4.7063,-4.7086,-4.7179,-4.7212,-4.7264,-4.733,-4.7333,-4.7395,-4.7425,-4.7492,-4.7512,-4.7607,-4.7625,-4.7641,-4.7645,-4.7641,-4.7639,-4.7667,-4.7659,-4.7652,-4.7651,-4.765,-4.765,0,-4.6888,-4.6921,-4.7027,-4.7093,-4.7112,-4.7178,-4.7235,-4.7293,-4.7321,-4.7405,-4.7426,-4.7471,-4.755,-4.758,-4.7676,-4.769,-4.78,-4.7798,-4.7779,-4.7781,-4.784,-4.7834,-4.8029,-4.8056,-4.7901,-4.7902,-4.7904,0,-4.6969,-4.7033,-4.7106,-4.7151,-4.7188,-4.726,-4.7307,-4.7332,-4.7381,-4.7456,-4.7505,-4.7584,-4.7649,-4.7775,-4.7815,-4.7889,-4.7889,-4.7952,-4.79,-4.7894,-4.789,-4.7886,-4.7893,-4.7962,-4.7963,-4.7965,-4.7966,0,-4.7108,-4.7121,-4.7189,-4.7263,-4.732,-4.7379,-4.7436,-4.7473,-4.7507,-4.7562,-4.7643,-4.7693,-4.7792,-4.787,-4.7946,-4.7982,-4.798,-4.7982,-4.8,-4.7996,-4.7983,-4.7991,-4.7806,-4.7977,-4.7976,-4.7975,-4.7975,-4.7974,-4.7205,-4.7262,-4.7323,-4.7398,-4.7444,-4.7498,-4.7557,-4.7592,-4.766,-4.7743,-4.7753,-4.784,-4.79,-4.8002,-4.8041,-4.8109,-4.8093,-4.8119,-4.8126,-4.8132,-4.8136,-4.7972,-4.8123,-4.8123,-4.8123,-4.8122,-4.8122,0,-4.7345,-4.7384,-4.7453,-4.7534,-4.7593,-4.7587,-4.765,-4.77,-4.7777,-4.7833,-4.7896,-4.799,-4.8066,-4.8113,-4.8189,-4.8235,-4.8236,-4.8254,-4.8251,-4.8259,-4.8146,-4.8123,-4.8252,-4.8252,-4.8252,-4.8252,-4.8252,-4.8252,-4.7425,-4.7522,-4.7542,-4.7662,-4.77,-4.7785,-4.7822,-4.7872,-4.7917,-4.8021,-4.8084,-4.8114,-4.8167,-4.8247,-4.8317,-4.8329,-4.8357,-4.8377,-4.8387,-4.8281,-4.8267,-4.8254,-4.8233,-4.8382,-4.8383,-4.8494,-4.8495,-4.8496]}]]